sat.trackr.live / text

‹ back to catalog

STARLINK-31787

NORAD 59650 · 2024-082V

PAYLOAD ACTIVE UNKNOWN

§ Identity

Operator
Country
US
Launch date
2024-05-03
Launch site
AFETR
Launch vehicle
Mass (kg)
RCS (m²)

Purposes: comms

External: N2YO · Heavens-Above · Gunter

§ Orbital elements

Epoch: 2026-09-20T22:40:52.997376Z

Period
94.27 min
Inclination
43.0028°
Eccentricity
0.0001364
Mean motion
15.27576294 rev/d
Perigee alt
482.1 km
Apogee alt
484.0 km
Semi-major
6,861.2 km
B*
5.4540e-5
RAAN
117.1087°
Arg perigee
266.5199°
Mean anomaly
93.5497°
Rev number
13,487

§ Raw data

STARLINK-317871 59650U 24082V   26263.94505784  .00001239  00000+0  54540-4 0  99982 59650  43.0028 117.1087 0001364 266.5199  93.5497 15.27576294134879

JSON: /api/v1/satellites/59650 · /tle

For live sub-satellite position, see the globe view (requires WebGL).

§ Visibility from observer

Set your observer location to see the next 7 days of passes ≥ 10°. The values pass through the URL so the page stays shareable.

No JS? Fill the form by hand. The geolocation button needs JavaScript.